User: anonymous   Login
Location: Rumah Apan
(2.7833°N, 113.9500°E)
Time: 00:03:04
(UTC+00:00)
Language:

Cosmos 405 Rocket - Orbit

View from above orbital plane
View from above orbital plane
View from above satellite
View from above satellite

Ground track
Ground track

The orbit data is extracted from the following two-line orbital elements,

1 05118U 71028B   21300.58200785  .00001295  00000-0  65773-4 0  9993
2 05118  81.2531 125.1744 0045953 340.1695  19.7745 15.15246875745075
Epoch (UTC): 27 October 2021 13:58:05
Eccentricity: 0.0045953
inclination: 81.2531°
perigee height: 488 km
apogee height: 552 km
right ascension of ascending node: 125.1744°
argument of perigee: 340.1695°
revolutions per day: 15.15246875
mean anomaly at epoch: 19.7745°
orbit number at epoch: 74507

The dashed part of the orbit path shows where the satellite is in the earth's shadow,  

DLR